Flag for Switzerland Weather past 2 weeks in Onex, Geneva, Switzerland

Now
72 °F

Passing clouds.


Feels Like: 76 °F
Forecast: 56 / 68 °F
Wind: 6 mph from West

Location: Geneva Cointrin Airport

Current Time: Sep 1, 2015 at 6:32:46 AM

Latest Report: Sep 1, 2015 at 5:20 AM


Visibility: N/A

Pressure: 29.92 "Hg

Humidity: 57%

Dew point: 55 °F

Location of OnexLocation

Historic Weather in Onex — Graph

°F

Onex temperature yesterday

Maximum temperature yesterday: 88 °F (at 2:20 PM)
Minimum temperature yesterday: 61 °F (at 5:50 AM)
Average temperature yesterday: 75 °F

Past Weeks' High & Low Weather Summary

 TemperatureHumidityPressure
High90 °F (Aug 28, 4:50 PM)94% (Aug 18, 1:20 AM)30.24 "Hg (Aug 18, 1:20 AM)
Low50 °F (Aug 20, 4:20 AM)25% (Aug 31, 3:50 PM)29.74 "Hg (Aug 24, 4:20 AM)
Average68 °F62%30.05 "Hg
* Reported Aug 17 4:20 AM — Sep 1 4:50 AM, Onex, Weather by CustomWeather, © 2015

Note: Actual official high and low records may vary slightly from our data, if they occured in-between our weather recording intervals... More about our weather records

Advertising

Onex weather history for previous 24 hours

 ConditionsComfort  
Time TempWeatherWind HumidityBarometerVisibility
4:50 AM
Tue, Sep 1
72 °FClear.3 mph53%29.92 "Hg10 mi
4:20 AM72 °FClear.8 mph53%29.95 "Hg10 mi
3:50 AM73 °FPartly cloudy.15 mph50%29.95 "HgN/A
2:50 AM72 °FSprinkles. Partly cloudy.6 mph61%29.95 "HgN/A
2:20 AM70 °FPassing clouds.1 mph64%29.95 "HgN/A
1:50 AM72 °FPartly cloudy.6 mph61%29.95 "HgN/A
1:20 AM72 °FPassing clouds.7 mph61%29.95 "HgN/A
12:50 AM70 °FClear.3 mph64%29.95 "Hg10 mi
12:20 AM72 °FPassing clouds.5 mph57%29.95 "HgN/A
11:50 PM
Mon, Aug 31
72 °FClear.3 mph57%29.95 "Hg10 mi
11:20 PM73 °FClear.6 mph53%29.95 "Hg10 mi
10:50 PM77 °FClear.9 mph47%29.95 "Hg10 mi
10:20 PM77 °FClear.9 mph47%29.95 "Hg10 mi
9:50 PM79 °FClear.9 mph45%29.95 "Hg10 mi
9:20 PM79 °FClear.12 mph45%29.95 "Hg10 mi
8:50 PM79 °FScattered clouds.9 mph42%29.95 "HgN/A
8:20 PM81 °FScattered clouds.9 mph39%29.95 "HgN/A
7:50 PM84 °FScattered clouds.13 mph35%29.98 "HgN/A
7:20 PM84 °FSunny.13 mph35%29.98 "Hg10 mi
6:50 PM84 °FSunny.13 mph35%29.98 "Hg10 mi
6:20 PM88 °FSunny.15 mph31%29.98 "Hg10 mi
5:50 PM88 °FPassing clouds.18 mph29%29.98 "HgN/A
5:20 PM88 °FPassing clouds.15 mph29%29.98 "HgN/A
4:50 PM88 °FPassing clouds.17 mph29%29.98 "HgN/A
4:20 PM88 °FPassing clouds.15 mph27%30.01 "HgN/A
3:50 PM88 °FPassing clouds.14 mph25%30.01 "HgN/A
3:20 PM88 °FPassing clouds.15 mph27%30.01 "HgN/A
2:50 PM88 °FPassing clouds.13 mph27%30.01 "HgN/A
2:20 PM88 °FPassing clouds.9 mph27%30.04 "HgN/A
1:50 PM86 °FPassing clouds.8 mph33%30.04 "HgN/A
1:20 PM84 °FPassing clouds.8 mph33%30.04 "HgN/A
12:50 PM82 °FPassing clouds.7 mph40%30.04 "HgN/A
12:20 PM81 °FPassing clouds.6 mph42%30.07 "HgN/A
11:50 AM79 °FPassing clouds.9 mph48%30.07 "HgN/A
11:20 AM77 °FPassing clouds.6 mph54%30.07 "HgN/A
10:50 AM77 °FPassing clouds.5 mph51%30.07 "HgN/A
10:20 AM77 °FPassing clouds.3 mph54%30.07 "HgN/A
9:50 AM73 °FSunny.1 mph57%30.07 "Hg10 mi
9:20 AM73 °FSunny.2 mph57%30.07 "Hg10 mi
8:50 AM68 °FSunny.2 mph69%30.07 "Hg10 mi
8:20 AM66 °FSunny.2 mph73%30.07 "Hg10 mi
7:50 AM61 °FClear.1 mph83%30.07 "Hg10 mi
7:20 AM61 °FClear.1 mph83%30.07 "Hg10 mi
6:50 AM61 °FClear.2 mph83%30.07 "Hg10 mi
6:20 AM63 °FClear.2 mph77%30.07 "Hg10 mi
Weather by CustomWeather, © 2015

See weather overviewHow to use our weather pages